Imrali, Turkey

2:43 AM +03 on April 23, 2018 (GMT +0300)
Ataturk | | Change Station

Elev 121 ft 40.97 °N, 28.82 °E | Updated 23 minutes ago

Clear
Clear
59 °F
Feels Like 59 °F
N
6
Wind Variable Wind from SSE

Today
High -- | Low -- °F
--% Chance of Precip.
Yesterday
High -- | Low -- °F
Precip. -- in
Pressure 29.98 in
Visibility -9999.0 miles
Clouds
Dew Point 39 °F
Humidity 48%
Rainfall 0.00 in
Snow Depth Not available.
6:16 AM 7:53 PM
Waxing Crescent, 51% visible
METAR LTBA 222320Z 16005KT 120V200 CAVOK 15/04 Q1015 NOSIG RMK RWY17L 17005KT 150V230 RWY05 00000KT RWY23 19002KT
Pressure 29.98 in
Visibility -9999.0 miles
Clouds
Dew Point 39 °F
Humidity 48%
Rainfall 0.00 in
Snow Depth Not available.
6:16 AM 7:53 PM
Waxing Crescent, 51% visible
METAR LTBA 222320Z 16005KT 120V200 CAVOK 15/04 Q1015 NOSIG RMK RWY17L 17005KT 150V230 RWY05 00000KT RWY23 19002KT

Get Severe Weather Alerts

Thanks for signing up!

Be on the lookout for a verification email in your inbox.

You'll start receiving the daily forecast at 6 AM.

×

10-Day Weather Forecast

×

Almanac

Astronomy

Apr. 23, 2018 Rise Set
Actual Time
Civil Twilight
Nautical Twilight
Astronomical Twilight
Moon
Length of Visible Light
Length of Day
Tomorrow will be .
, % of the Moon is Illuminated

Today's Extremes

Country Highs Country Lows

Community

WunderPhotos

Category 6

Welcome to Category 6. This is the collective home for Weather Underground's featured writeups by Dr. Jeff Masters (right), Bob Henson (left), Chris Burt, and other regular contributors.

Nearby

Air Quality

  Air Quality AQ Index Pollutant
Not available.

Snow Depth

Station Depth Elevation

Earthquake Activity

City Distance Mag. Time & Date
Minimum magnitude displayed is 2.5.

Coastal Water Temperatures

Place Temperature

Stations

Nearby Weather Stations

Station Location Temp. Windchill Dew Point Humidity Wind Precip. Elev Updated Type